This is the latest recevied weather packets stored in our database for station/object JS2QVS-13. If no packets are shown the sender has not sent any weather packets the latest 10 day(s).
| Time | Temp. | Humidity | Pressure | Rain* | Wind** | Luminosity | Snow |
|---|---|---|---|---|---|---|---|
| 1788534656 | 22.78° C | 89% | 1006.5 hPa | 0 mm | - | - | - |
| 1788534058 | 22.78° C | 88% | 1006.9 hPa | 0 mm | - | - | - |
| 1788533457 | 22.78° C | 88% | 1007.3 hPa | 2.79 mm | - | - | - |
| 1788532858 | 22.78° C | 88% | 1007.4 hPa | 2.54 mm | - | - | - |
| 1788532258 | 22.78° C | 88% | 1007.4 hPa | 2.29 mm | - | - | - |
| 1788531658 | 22.78° C | 88% | 1007.3 hPa | 0.76 mm | - | - | - |
| 1788531057 | 22.78° C | 89% | 1006.6 hPa | 0.25 mm | - | - | - |
| 1788530457 | 22.78° C | 89% | 1006.3 hPa | 0 mm | - | - | - |
| 1788529857 | 22.78° C | 90% | 1006.1 hPa | 0 mm | - | - | - |
| 1788529257 | 22.78° C | 90% | 1006.5 hPa | 0 mm | - | - | - |
| 1788528657 | 22.78° C | 90% | 1006.9 hPa | 0 mm | - | - | - |
| 1788528057 | 22.78° C | 90% | 1007.1 hPa | 0.25 mm | - | - | - |
| 1788527457 | 22.78° C | 90% | 1006.4 hPa | 0.25 mm | - | - | - |
| 1788526857 | 22.78° C | 90% | 1006.4 hPa | 1.02 mm | - | - | - |
| 1788526257 | 22.78° C | 90% | 1006.6 hPa | 2.29 mm | - | - | - |
| 1788525657 | 22.78° C | 90% | 1006.9 hPa | 3.05 mm | - | - | - |
| 1788525056 | 22.78° C | 90% | 1006.7 hPa | 4.06 mm | - | - | - |
| 1788524456 | 22.78° C | 91% | 1005.8 hPa | 4.83 mm | - | - | - |
| 1788523856 | 22.78° C | 91% | 1006.8 hPa | 5.59 mm | - | - | - |
| 1788523258 | 22.78° C | 90% | 1007.4 hPa | 5.33 mm | - | - | - |
| 1788522658 | 23.33° C | 88% | 1008.1 hPa | 4.32 mm | - | - | - |
| 1788522058 | 23.33° C | 87% | 1008 hPa | 3.56 mm | - | - | - |
| 1788521458 | 23.89° C | 87% | 1008.4 hPa | 3.05 mm | - | - | - |
| 1788520858 | 23.89° C | 87% | 1008.3 hPa | 2.29 mm | - | - | - |
| 1788520258 | 23.33° C | 87% | 1007.7 hPa | 1.78 mm | - | - | - |
* Rain latest hour (hover to see other rain measurements)
** Current wind speed in m/s (hover to see current wind gust speed)